Time,TemperatureF,DewpointF,PressureIn,WindDirection,WindDirectionDegrees,WindSpeedMPH,WindSpeedGustMPH,Humidity,HourlyPrecipIn,Conditions,Clouds,dailyrainin,SolarRadiationWatts/m^2,SoftwareType,DateUTC
2013-05-09 00:04:00,63.3,56.7,29.98,North,9,0.0,1.0,79,0.00,FEW,,0.00,0.0,WeatherDisplay:10.37,2013-05-08 22:04:00,
2013-05-09 00:09:00,63.4,56.8,29.98,North,9,0.0,0.0,79,0.00,FEW,,0.00,0.0,WeatherDisplay:10.37,2013-05-08 22:09:00,
2013-05-09 00:14:00,63.4,56.8,29.98,North,9,0.0,0.0,79,0.00,FEW,,0.00,0.0,WeatherDisplay:10.37,2013-05-08 22:14:00,
2013-05-09 00:19:00,63.3,56.7,29.98,North,9,0.0,1.0,79,0.00,FEW,,0.00,0.0,WeatherDisplay:10.37,2013-05-08 22:19:00,
2013-05-09 00:24:00,63.2,56.6,29.98,North,5,0.0,0.0,79,0.00,FEW,,0.00,0.0,WeatherDisplay:10.37,2013-05-08 22:24:00,
2013-05-09 00:29:00,63.2,56.6,29.98,North,5,0.0,0.0,79,0.00,FEW,,0.00,0.0,WeatherDisplay:10.37,2013-05-08 22:29:00,
2013-05-09 00:34:00,63.1,56.5,29.98,North,5,1.2,1.2,79,0.00,FEW,,0.00,0.0,WeatherDisplay:10.37,2013-05-08 22:34:00,
2013-05-09 00:39:00,63.1,56.5,29.98,North,5,0.0,0.0,79,0.00,FEW,,0.00,0.0,WeatherDisplay:10.37,2013-05-08 22:39:00,
2013-05-09 00:44:00,63.2,56.6,29.97,North,5,0.0,0.0,79,0.00,FEW,,0.00,0.0,WeatherDisplay:10.37,2013-05-08 22:44:00,
2013-05-09 00:49:00,63.3,56.7,29.97,North,5,0.0,0.0,79,0.00,FEW,,0.00,0.0,WeatherDisplay:10.37,2013-05-08 22:49:00,
2013-05-09 00:54:00,63.4,57.1,29.97,North,5,0.0,0.0,80,0.00,FEW,,0.00,0.0,WeatherDisplay:10.37,2013-05-08 22:54:00,
2013-05-09 00:59:00,63.4,56.8,29.97,North,5,0.0,0.0,79,0.00,FEW,,0.00,0.0,WeatherDisplay:10.37,2013-05-08 22:59:00,
2013-05-09 01:04:00,63.4,57.1,29.97,North,5,0.0,0.0,80,0.00,,,0.00,0.0,WeatherDisplay:10.37,2013-05-08 23:04:00,
2013-05-09 01:09:00,63.6,57.3,29.97,North,5,0.0,0.0,80,0.00,,,0.00,0.0,WeatherDisplay:10.37,2013-05-08 23:09:00,
2013-05-09 01:14:00,63.6,57.0,29.97,North,5,0.0,0.0,79,0.00,,,0.00,0.0,WeatherDisplay:10.37,2013-05-08 23:14:00,
2013-05-09 01:20:00,63.6,57.3,29.97,North,5,0.0,0.0,80,0.00,,,0.00,0.0,WeatherDisplay:10.37,2013-05-08 23:20:00,
2013-05-09 01:25:00,63.7,57.4,29.97,North,5,0.0,0.0,80,0.00,,,0.00,0.0,WeatherDisplay:10.37,2013-05-08 23:25:00,
2013-05-09 01:30:00,63.7,57.4,29.97,North,5,0.0,0.0,80,0.00,,,0.00,0.0,WeatherDisplay:10.37,2013-05-08 23:30:00,
2013-05-09 01:35:00,63.7,57.4,29.96,South,190,1.2,1.2,80,0.00,,,0.00,0.0,WeatherDisplay:10.37,2013-05-08 23:35:00,
2013-05-09 01:40:00,63.6,57.7,29.97,West,273,1.2,1.2,81,0.00,,,0.00,0.0,WeatherDisplay:10.37,2013-05-08 23:40:00,
2013-05-09 01:45:00,63.6,57.7,29.96,South,190,0.0,0.0,81,0.00,,,0.00,0.0,WeatherDisplay:10.37,2013-05-08 23:45:00,
2013-05-09 01:50:00,63.6,57.7,29.96,South,190,0.0,0.0,81,0.00,,,0.00,0.0,WeatherDisplay:10.37,2013-05-08 23:50:00,
2013-05-09 01:55:00,63.6,57.7,29.96,South,190,0.0,0.0,81,0.00,,,0.00,0.0,WeatherDisplay:10.37,2013-05-08 23:55:00,
2013-05-09 02:00:00,63.5,57.6,29.95,South,190,0.0,0.0,81,0.00,,,0.00,0.0,WeatherDisplay:10.37,2013-05-09 00:00:00,
2013-05-09 02:05:00,63.5,57.6,29.95,South,190,0.0,0.0,81,0.00,,,0.00,0.0,WeatherDisplay:10.37,2013-05-09 00:05:00,
2013-05-09 02:10:00,63.6,57.7,29.95,South,190,0.0,0.0,81,0.00,,,0.00,0.0,WeatherDisplay:10.37,2013-05-09 00:10:00,
2013-05-09 02:15:00,63.6,57.7,29.95,South,190,0.0,0.0,81,0.00,,,0.00,0.0,WeatherDisplay:10.37,2013-05-09 00:15:00,
2013-05-09 02:20:00,63.6,57.7,29.95,South,190,0.0,0.0,81,0.00,,,0.00,0.0,WeatherDisplay:10.37,2013-05-09 00:20:00,
2013-05-09 02:25:00,63.6,57.7,29.95,South,190,0.0,0.0,81,0.00,,,0.00,0.0,WeatherDisplay:10.37,2013-05-09 00:25:00,
2013-05-09 02:30:00,63.6,57.7,29.95,South,190,0.0,0.0,81,0.00,,,0.00,0.0,WeatherDisplay:10.37,2013-05-09 00:30:00,
2013-05-09 02:35:00,63.6,57.7,29.94,South,190,0.0,0.0,81,0.00,,,0.00,0.0,WeatherDisplay:10.37,2013-05-09 00:35:00,
2013-05-09 02:40:00,63.5,57.6,29.94,South,190,0.0,0.0,81,0.00,,,0.00,0.0,WeatherDisplay:10.37,2013-05-09 00:40:00,
2013-05-09 02:45:00,63.4,57.5,29.94,East,97,1.2,1.2,81,0.00,,,0.00,0.0,WeatherDisplay:10.37,2013-05-09 00:45:00,
2013-05-09 02:50:00,63.3,57.4,29.94,ENE,69,3.5,3.5,81,0.00,,,0.00,0.0,WeatherDisplay:10.37,2013-05-09 00:50:00,
2013-05-09 02:55:00,63.2,57.3,29.94,ESE,109,3.5,3.5,81,0.00,,,0.00,0.0,WeatherDisplay:10.37,2013-05-09 00:55:00,
2013-05-09 03:00:00,63.0,57.4,29.94,ENE,75,3.5,3.5,82,0.00,,,0.00,0.0,WeatherDisplay:10.37,2013-05-09 01:00:00,
2013-05-09 03:05:00,62.9,57.3,29.94,East,87,5.8,5.8,82,0.00,,,0.00,0.0,WeatherDisplay:10.37,2013-05-09 01:05:00,
2013-05-09 03:10:00,62.8,57.2,29.94,ESE,107,5.0,5.0,82,0.00,,,0.00,0.0,WeatherDisplay:10.37,2013-05-09 01:10:00,
2013-05-09 03:15:00,62.8,57.2,29.94,East,94,3.5,3.5,82,0.00,,,0.00,0.0,WeatherDisplay:10.37,2013-05-09 01:15:00,
2013-05-09 03:20:00,62.8,57.6,29.93,East,99,1.2,1.2,83,0.00,,,0.00,0.0,WeatherDisplay:10.37,2013-05-09 01:20:00,
2013-05-09 03:25:00,62.7,57.5,29.93,East,101,2.3,2.3,83,0.00,,,0.00,0.0,WeatherDisplay:10.37,2013-05-09 01:25:00,
2013-05-09 03:30:00,62.6,57.4,29.94,ESE,123,2.3,2.3,83,0.00,,,0.00,0.0,WeatherDisplay:10.37,2013-05-09 01:30:00,
2013-05-09 03:35:00,62.4,57.2,29.93,ENE,74,1.2,1.2,83,0.00,,,0.00,0.0,WeatherDisplay:10.37,2013-05-09 01:35:00,
2013-05-09 03:40:00,62.3,57.1,29.93,SW,220,1.2,1.2,83,0.00,,,0.00,0.0,WeatherDisplay:10.37,2013-05-09 01:40:00,
2013-05-09 03:45:00,62.2,57.3,29.93,East,87,1.2,1.2,84,0.00,,,0.00,0.0,WeatherDisplay:10.37,2013-05-09 01:45:00,
2013-05-09 03:50:00,62.1,57.2,29.93,SSE,160,1.2,1.2,84,0.00,,,0.00,0.0,WeatherDisplay:10.37,2013-05-09 01:50:00,
2013-05-09 03:55:00,62.0,57.1,29.93,SSE,160,1.2,0.0,84,0.00,,,0.00,0.0,WeatherDisplay:10.37,2013-05-09 01:55:00,
2013-05-09 04:00:00,61.8,56.9,29.93,SSE,160,1.2,1.2,84,0.00,,,0.00,0.0,WeatherDisplay:10.37,2013-05-09 02:00:00,
2013-05-09 04:05:00,61.8,57.2,29.93,SSW,201,1.2,0.0,85,0.00,,,0.00,0.0,WeatherDisplay:10.37,2013-05-09 02:05:00,
2013-05-09 04:10:00,61.7,57.1,29.93,West,270,1.2,1.2,85,0.00,,,0.00,0.0,WeatherDisplay:10.37,2013-05-09 02:10:00,
2013-05-09 04:15:00,61.7,57.1,29.93,WSW,245,1.2,1.2,85,0.00,,,0.00,0.0,WeatherDisplay:10.37,2013-05-09 02:15:00,
2013-05-09 04:20:00,61.6,57.0,29.93,ENE,63,2.3,2.3,85,0.00,,,0.00,0.0,WeatherDisplay:10.37,2013-05-09 02:20:00,
2013-05-09 04:25:00,61.6,57.0,29.94,East,90,3.5,3.5,85,0.00,,,0.00,0.0,WeatherDisplay:10.37,2013-05-09 02:25:00,
2013-05-09 04:30:00,61.3,56.8,29.94,West,264,2.3,2.3,85,0.00,,,0.00,0.0,WeatherDisplay:10.37,2013-05-09 02:30:00,
2013-05-09 04:35:00,61.2,56.7,29.94,SW,217,0.0,0.0,85,0.00,,,0.00,0.0,WeatherDisplay:10.37,2013-05-09 02:35:00,
2013-05-09 04:40:00,61.0,56.5,29.94,ENE,67,3.5,3.5,85,0.00,,,0.00,0.0,WeatherDisplay:10.37,2013-05-09 02:40:00,
2013-05-09 04:45:00,60.9,56.7,29.94,SW,230,3.5,3.5,86,0.00,,,0.00,0.0,WeatherDisplay:10.37,2013-05-09 02:45:00,
2013-05-09 04:50:00,60.8,56.6,29.94,East,92,4.6,4.6,86,0.00,,,0.00,0.0,WeatherDisplay:10.37,2013-05-09 02:50:00,
2013-05-09 04:55:00,60.7,56.5,29.94,WSW,257,2.3,2.3,86,0.00,,,0.00,0.0,WeatherDisplay:10.37,2013-05-09 02:55:00,
2013-05-09 05:00:00,60.6,56.4,29.94,North,350,5.8,5.8,86,0.00,,,0.00,0.0,WeatherDisplay:10.37,2013-05-09 03:00:00,
2013-05-09 05:05:00,60.7,56.5,29.94,NNE,22,4.0,4.0,86,0.00,,,0.00,0.0,WeatherDisplay:10.37,2013-05-09 03:05:00,
2013-05-09 05:10:00,61.2,57.0,29.94,NNE,12,3.5,3.5,86,0.00,,,0.00,0.0,WeatherDisplay:10.37,2013-05-09 03:10:00,
2013-05-09 05:15:00,61.4,56.8,29.94,North,355,3.5,3.5,85,0.00,,,0.00,0.0,WeatherDisplay:10.37,2013-05-09 03:15:00,
2013-05-09 05:20:00,61.4,56.8,29.94,ENE,74,1.2,1.6,85,0.00,,,0.00,0.0,WeatherDisplay:10.37,2013-05-09 03:20:00,
2013-05-09 05:25:00,61.1,56.6,29.95,ENE,78,2.3,2.3,85,0.00,,,0.00,0.0,WeatherDisplay:10.37,2013-05-09 03:25:00,
2013-05-09 05:30:00,61.0,56.5,29.95,WSW,254,1.2,1.2,85,0.00,,,0.00,0.0,WeatherDisplay:10.37,2013-05-09 03:30:00,
2013-05-09 05:35:00,60.9,56.7,29.95,SSE,155,2.3,2.3,86,0.00,,,0.00,0.0,WeatherDisplay:10.37,2013-05-09 03:35:00,
2013-05-09 05:40:00,60.8,56.6,29.95,North,11,3.5,3.5,86,0.00,,,0.00,0.0,WeatherDisplay:10.37,2013-05-09 03:40:00,
2013-05-09 05:45:00,60.7,56.5,29.95,NNE,19,4.6,4.6,86,0.00,,,0.00,0.0,WeatherDisplay:10.37,2013-05-09 03:45:00,
2013-05-09 05:50:00,60.6,56.4,29.95,North,360,6.9,6.9,86,0.00,,,0.00,0.0,WeatherDisplay:10.37,2013-05-09 03:50:00,
2013-05-09 05:55:00,60.6,56.4,29.95,NE,54,7.0,7.0,86,0.00,,,0.00,5.0,WeatherDisplay:10.37,2013-05-09 03:55:00,
2013-05-09 06:00:00,60.7,56.5,29.95,NNE,22,5.8,5.8,86,0.00,BKN,,0.00,9.0,WeatherDisplay:10.37,2013-05-09 04:00:00,
2013-05-09 06:01:00,60.7,56.5,29.95,NNE,14,5.8,5.8,86,0.00,BKN,,0.00,9.0,WeatherDisplay:10.37,2013-05-09 04:01:00,
2013-05-09 06:06:00,60.8,56.6,29.95,NNE,26,4.0,4.0,86,0.00,BKN,,0.00,14.0,WeatherDisplay:10.37,2013-05-09 04:06:00,
2013-05-09 06:11:00,60.9,56.7,29.95,WSW,253,1.2,1.2,86,0.00,BKN,,0.00,19.0,WeatherDisplay:10.37,2013-05-09 04:11:00,
2013-05-09 06:16:00,61.0,56.8,29.95,NE,48,2.0,2.0,86,0.00,BKN,,0.00,26.0,WeatherDisplay:10.37,2013-05-09 04:16:00,
2013-05-09 06:21:00,61.2,57.0,29.95,NE,44,4.0,4.0,86,0.00,BKN,,0.00,23.0,WeatherDisplay:10.37,2013-05-09 04:21:00,
2013-05-09 06:26:00,61.4,57.2,29.95,NNE,28,3.5,3.5,86,0.00,BKN,,0.00,23.0,WeatherDisplay:10.37,2013-05-09 04:26:00,
2013-05-09 06:31:00,61.5,56.9,29.96,NE,50,2.3,2.3,85,0.00,BKN,,0.00,25.0,WeatherDisplay:10.37,2013-05-09 04:31:00,
2013-05-09 06:36:00,61.5,56.9,29.96,NE,51,2.3,2.3,85,0.00,BKN,,0.00,37.0,WeatherDisplay:10.37,2013-05-09 04:36:00,
2013-05-09 06:41:00,61.8,57.2,29.96,WSW,253,1.2,1.2,85,0.00,BKN,,0.00,35.0,WeatherDisplay:10.37,2013-05-09 04:41:00,
2013-05-09 06:46:00,61.9,57.0,29.96,WSW,253,2.3,2.3,84,0.00,BKN,,0.00,33.0,WeatherDisplay:10.37,2013-05-09 04:46:00,
2013-05-09 06:51:00,62.1,57.2,29.96,SSW,194,1.2,1.2,84,0.00,BKN,,0.00,39.0,WeatherDisplay:10.37,2013-05-09 04:51:00,
2013-05-09 06:56:00,62.3,57.1,29.96,WSW,244,2.3,2.3,83,0.00,BKN,,0.00,134.0,WeatherDisplay:10.37,2013-05-09 04:56:00,
2013-05-09 07:01:00,62.6,57.4,29.96,NNE,12,3.5,3.5,83,0.00,BKN,,0.00,86.0,WeatherDisplay:10.37,2013-05-09 05:01:00,
2013-05-09 07:06:00,62.9,57.3,29.96,SW,219,2.3,2.3,82,0.00,BKN,,0.00,171.0,WeatherDisplay:10.37,2013-05-09 05:06:00,
2013-05-09 07:11:00,63.2,57.6,29.96,SSW,213,2.3,2.3,82,0.00,BKN,,0.00,186.0,WeatherDisplay:10.37,2013-05-09 05:11:00,
2013-05-09 07:16:00,63.5,57.6,29.96,West,262,2.3,2.3,81,0.00,BKN,,0.00,204.0,WeatherDisplay:10.37,2013-05-09 05:16:00,
2013-05-09 07:21:00,63.9,58.0,29.96,ESE,111,2.3,2.3,81,0.00,SCT,,0.00,223.0,WeatherDisplay:10.37,2013-05-09 05:21:00,
2013-05-09 07:26:00,64.2,58.2,29.96,NE,56,2.3,2.3,81,0.00,SCT,,0.00,239.0,WeatherDisplay:10.37,2013-05-09 05:26:00,
2013-05-09 07:31:00,64.7,58.7,29.96,SE,146,2.0,2.0,81,0.00,SCT,,0.00,251.0,WeatherDisplay:10.37,2013-05-09 05:31:00,
2013-05-09 07:36:00,65.1,58.8,29.96,NNW,336,1.2,1.2,80,0.00,SCT,,0.00,269.0,WeatherDisplay:10.37,2013-05-09 05:36:00,
2013-05-09 07:41:00,65.3,58.3,29.96,NW,313,5.8,5.8,78,0.00,SCT,,0.00,285.0,WeatherDisplay:10.37,2013-05-09 05:41:00,
2013-05-09 07:46:00,65.5,58.1,29.96,ENE,67,2.0,2.0,77,0.00,SCT,,0.00,301.0,WeatherDisplay:10.37,2013-05-09 05:46:00,
2013-05-09 07:51:00,65.8,57.7,29.96,East,97,2.3,2.3,75,0.00,SCT,,0.00,315.0,WeatherDisplay:10.37,2013-05-09 05:51:00,
2013-05-09 07:56:00,66.2,57.3,29.96,SE,136,4.6,4.6,73,0.00,SCT,,0.00,330.0,WeatherDisplay:10.37,2013-05-09 05:56:00,
2013-05-09 08:01:00,66.3,56.6,29.96,East,95,6.0,6.0,71,0.00,SCT,,0.00,346.0,WeatherDisplay:10.37,2013-05-09 06:01:00,
2013-05-09 08:06:00,66.2,56.5,29.96,ESE,105,4.0,4.0,71,0.00,SCT,,0.00,359.0,WeatherDisplay:10.37,2013-05-09 06:06:00,
2013-05-09 08:11:00,66.3,56.2,29.96,ENE,71,8.1,8.1,70,0.00,SCT,,0.00,376.0,WeatherDisplay:10.37,2013-05-09 06:11:00,
2013-05-09 08:16:00,66.4,55.9,29.96,ESE,102,9.2,9.2,69,0.00,SCT,,0.00,390.0,WeatherDisplay:10.37,2013-05-09 06:16:00,
2013-05-09 08:21:00,66.5,55.6,29.97,ENE,63,6.9,6.9,68,0.00,SCT,,0.00,406.0,WeatherDisplay:10.37,2013-05-09 06:21:00,
2013-05-09 08:26:00,66.5,56.0,29.97,ENE,62,6.9,6.9,69,0.00,SCT,,0.00,418.0,WeatherDisplay:10.37,2013-05-09 06:26:00,
2013-05-09 08:31:00,66.8,55.9,29.97,South,176,8.1,8.1,68,0.00,SCT,,0.00,436.0,WeatherDisplay:10.37,2013-05-09 06:31:00,
2013-05-09 08:36:00,66.9,55.2,29.97,East,94,8.1,8.1,66,0.00,SCT,,0.00,450.0,WeatherDisplay:10.37,2013-05-09 06:36:00,
2013-05-09 08:41:00,67.0,55.3,29.97,SE,134,6.9,6.9,66,0.00,SCT,,0.00,464.0,WeatherDisplay:10.37,2013-05-09 06:41:00,
2013-05-09 08:46:00,67.5,56.2,29.97,ENE,67,3.5,3.5,67,0.00,SCT,,0.00,473.0,WeatherDisplay:10.37,2013-05-09 06:46:00,
2013-05-09 08:51:00,68.1,55.9,29.97,East,92,5.8,5.8,65,0.00,SCT,,0.00,496.0,WeatherDisplay:10.37,2013-05-09 06:51:00,
2013-05-09 08:56:00,68.2,55.1,29.97,NNW,329,6.9,6.9,63,0.00,SCT,,0.00,503.0,WeatherDisplay:10.37,2013-05-09 06:56:00,
2013-05-09 09:01:00,68.3,54.8,29.97,ESE,111,6.9,6.9,62,0.00,SCT,,0.00,515.0,WeatherDisplay:10.37,2013-05-09 07:01:00,
2013-05-09 09:06:00,68.3,54.8,29.97,SE,132,3.5,3.5,62,0.00,SCT,,0.00,531.0,WeatherDisplay:10.37,2013-05-09 07:06:00,
2013-05-09 09:11:00,68.7,54.3,29.97,SE,132,5.0,5.0,60,0.00,SCT,,0.00,547.0,WeatherDisplay:10.37,2013-05-09 07:11:00,
2013-05-09 09:16:00,68.7,54.3,29.98,NE,48,2.3,2.3,60,0.00,SCT,,0.00,557.0,WeatherDisplay:10.37,2013-05-09 07:16:00,
2013-05-09 09:21:00,69.0,54.5,29.97,South,188,3.5,3.5,60,0.00,SCT,,0.00,575.0,WeatherDisplay:10.37,2013-05-09 07:21:00,
2013-05-09 09:26:00,69.7,54.7,29.98,ESE,123,2.3,2.3,59,0.00,SCT,,0.00,587.0,WeatherDisplay:10.37,2013-05-09 07:26:00,
2013-05-09 09:31:00,70.3,53.9,29.98,ESE,119,5.8,5.8,56,0.00,SCT,,0.00,605.0,WeatherDisplay:10.37,2013-05-09 07:31:00,
2013-05-09 09:37:00,70.0,53.1,29.98,NNE,18,3.5,3.5,55,0.00,SCT,,0.00,612.0,WeatherDisplay:10.37,2013-05-09 07:37:00,
2013-05-09 09:42:00,70.3,53.4,29.98,ESE,106,3.5,3.5,55,0.00,SCT,,0.00,629.0,WeatherDisplay:10.37,2013-05-09 07:42:00,
2013-05-09 09:47:00,70.6,53.1,29.98,ENE,57,6.9,6.9,54,0.00,SCT,,0.00,647.0,WeatherDisplay:10.37,2013-05-09 07:47:00,
2013-05-09 09:52:00,70.8,51.8,29.98,ESE,111,4.0,4.0,51,0.00,SCT,,0.00,654.0,WeatherDisplay:10.37,2013-05-09 07:52:00,
2013-05-09 09:57:00,70.5,52.5,29.98,SE,136,4.6,4.6,53,0.00,SCT,,0.00,670.0,WeatherDisplay:10.37,2013-05-09 07:57:00,
2013-05-09 10:02:00,70.6,52.6,29.98,ESE,111,9.2,9.2,53,0.00,SCT,,0.00,682.0,WeatherDisplay:10.37,2013-05-09 08:02:00,
2013-05-09 10:07:00,70.5,52.5,29.98,ESE,109,9.2,9.2,53,0.00,FEW,,0.00,696.0,WeatherDisplay:10.37,2013-05-09 08:07:00,
2013-05-09 10:12:00,70.3,52.4,29.98,ENE,69,6.9,6.9,53,0.00,FEW,,0.00,696.0,WeatherDisplay:10.37,2013-05-09 08:12:00,
2013-05-09 10:17:00,70.8,52.3,29.98,SE,139,8.1,8.1,52,0.00,FEW,,0.00,714.0,WeatherDisplay:10.37,2013-05-09 08:17:00,
2013-05-09 10:22:00,71.0,51.4,29.98,East,96,9.2,9.2,50,0.00,FEW,,0.00,722.0,WeatherDisplay:10.37,2013-05-09 08:22:00,
2013-05-09 10:27:00,71.0,50.9,29.98,SE,127,5.0,5.0,49,0.00,FEW,,0.00,731.0,WeatherDisplay:10.37,2013-05-09 08:27:00,
2013-05-09 10:32:00,71.5,50.8,29.98,SE,138,5.8,5.8,48,0.00,FEW,,0.00,745.0,WeatherDisplay:10.37,2013-05-09 08:32:00,
2013-05-09 10:37:00,72.4,51.0,29.98,East,88,8.1,8.1,47,0.00,FEW,,0.00,756.0,WeatherDisplay:10.37,2013-05-09 08:37:00,
2013-05-09 10:42:00,71.9,50.6,29.98,East,92,8.1,8.1,47,0.00,FEW,,0.00,766.0,WeatherDisplay:10.37,2013-05-09 08:42:00,
2013-05-09 10:47:00,72.0,51.8,29.98,ENE,60,2.3,2.3,49,0.00,FEW,,0.00,773.0,WeatherDisplay:10.37,2013-05-09 08:47:00,
2013-05-09 10:52:00,72.7,51.3,29.98,ENE,74,0.0,0.0,47,0.00,FEW,,0.00,784.0,WeatherDisplay:10.37,2013-05-09 08:52:00,
2013-05-09 10:57:00,72.8,54.1,29.98,NNW,344,4.6,4.6,52,0.00,FEW,,0.00,786.0,WeatherDisplay:10.37,2013-05-09 08:57:00,
2013-05-09 11:02:00,71.7,53.1,29.98,WNW,298,9.2,9.2,52,0.00,FEW,,0.00,788.0,WeatherDisplay:10.37,2013-05-09 09:02:00,
2013-05-09 11:07:00,70.8,54.3,29.98,WNW,299,10.4,10.4,56,0.00,FEW,,0.00,805.0,WeatherDisplay:10.37,2013-05-09 09:07:00,
2013-05-09 11:12:00,70.7,53.7,29.98,WSW,239,11.5,11.5,55,0.00,FEW,,0.00,812.0,WeatherDisplay:10.37,2013-05-09 09:12:00,
2013-05-09 11:17:00,70.5,53.1,29.98,West,279,9.2,9.2,54,0.00,FEW,,0.00,833.0,WeatherDisplay:10.37,2013-05-09 09:17:00,
2013-05-09 11:22:00,70.7,53.2,29.98,WSW,238,6.9,6.9,54,0.00,FEW,,0.00,851.0,WeatherDisplay:10.37,2013-05-09 09:22:00,
2013-05-09 11:27:00,71.4,52.9,29.98,West,263,10.4,10.4,52,0.00,FEW,,0.00,837.0,WeatherDisplay:10.37,2013-05-09 09:27:00,
2013-05-09 11:32:00,71.7,52.6,29.98,West,279,9.2,9.2,51,0.00,FEW,,0.00,844.0,WeatherDisplay:10.37,2013-05-09 09:32:00,
2013-05-09 11:37:00,71.9,52.8,29.98,SW,232,8.0,8.0,51,0.00,FEW,,0.00,856.0,WeatherDisplay:10.37,2013-05-09 09:37:00,
2013-05-09 11:42:00,71.9,53.3,29.97,South,176,9.2,9.2,52,0.00,FEW,,0.00,861.0,WeatherDisplay:10.37,2013-05-09 09:42:00,
2013-05-09 11:47:00,71.9,52.8,29.97,SSW,193,9.2,9.2,51,0.00,FEW,,0.00,870.0,WeatherDisplay:10.37,2013-05-09 09:47:00,
2013-05-09 11:52:00,72.2,53.1,29.97,WNW,298,9.2,9.2,51,0.00,FEW,,0.00,875.0,WeatherDisplay:10.37,2013-05-09 09:52:00,
2013-05-09 11:57:00,71.9,53.3,29.98,NNE,30,11.5,11.5,52,0.00,FEW,,0.00,879.0,WeatherDisplay:10.37,2013-05-09 09:57:00,
2013-05-09 12:02:00,70.8,53.8,29.98,West,265,13.8,13.8,55,0.00,FEW,,0.00,860.0,WeatherDisplay:10.37,2013-05-09 10:02:00,
2013-05-09 12:07:00,70.9,54.9,29.98,East,94,13.8,13.8,57,0.00,FEW,,0.00,867.0,WeatherDisplay:10.37,2013-05-09 10:07:00,
2013-05-09 12:12:00,70.9,54.4,29.98,West,278,13.8,13.8,56,0.00,FEW,,0.00,865.0,WeatherDisplay:10.37,2013-05-09 10:12:00,
2013-05-09 12:17:00,70.7,56.1,29.98,NNE,29,12.7,12.7,60,0.00,FEW,,0.00,877.0,WeatherDisplay:10.37,2013-05-09 10:17:00,
2013-05-09 12:22:00,69.6,56.9,29.98,SSE,151,16.1,16.1,64,0.00,FEW,,0.00,867.0,WeatherDisplay:10.37,2013-05-09 10:22:00,
2013-05-09 12:27:00,69.4,57.5,29.98,North,355,13.8,13.8,66,0.00,FEW,,0.00,874.0,WeatherDisplay:10.37,2013-05-09 10:27:00,
2013-05-09 12:32:00,70.0,58.5,29.98,SW,225,15.0,15.0,67,0.00,FEW,,0.00,872.0,WeatherDisplay:10.37,2013-05-09 10:32:00,
2013-05-09 12:37:00,69.4,58.0,29.98,WSW,258,15.0,15.0,67,0.00,FEW,,0.00,881.0,WeatherDisplay:10.37,2013-05-09 10:37:00,
2013-05-09 12:42:00,69.4,58.8,29.98,SW,215,16.0,16.0,69,0.00,FEW,,0.00,889.0,WeatherDisplay:10.37,2013-05-09 10:42:00,
2013-05-09 12:47:00,69.3,58.3,29.98,West,279,16.1,16.1,68,0.00,FEW,,0.00,889.0,WeatherDisplay:10.37,2013-05-09 10:47:00,
2013-05-09 12:52:00,69.2,59.0,29.98,WSW,256,15.0,15.0,70,0.00,FEW,,0.00,888.0,WeatherDisplay:10.37,2013-05-09 10:52:00,
2013-05-09 12:57:00,69.0,58.8,29.98,SSW,207,13.8,13.8,70,0.00,FEW,,0.00,888.0,WeatherDisplay:10.37,2013-05-09 10:57:00,
2013-05-09 13:02:00,69.1,58.1,29.98,WSW,244,13.8,13.8,68,0.00,FEW,,0.00,881.0,WeatherDisplay:10.37,2013-05-09 11:02:00,
2013-05-09 13:07:00,68.5,57.5,29.98,WSW,239,17.3,17.3,68,0.00,FEW,,0.00,884.0,WeatherDisplay:10.37,2013-05-09 11:07:00,
2013-05-09 13:12:00,68.5,56.7,29.98,WNW,290,15.0,15.0,66,0.00,FEW,,0.00,875.0,WeatherDisplay:10.37,2013-05-09 11:12:00,
2013-05-09 13:17:00,68.7,58.1,29.98,West,280,16.1,16.1,69,0.00,FEW,,0.00,877.0,WeatherDisplay:10.37,2013-05-09 11:17:00,
2013-05-09 13:22:00,68.4,58.2,29.98,West,270,13.8,13.8,70,0.00,FEW,,0.00,875.0,WeatherDisplay:10.37,2013-05-09 11:22:00,
2013-05-09 13:27:00,68.8,58.2,29.99,West,269,19.6,19.6,69,0.00,FEW,,0.00,879.0,WeatherDisplay:10.37,2013-05-09 11:27:00,
2013-05-09 13:32:00,69.0,59.2,29.98,WNW,296,15.0,15.0,71,0.00,FEW,,0.00,863.0,WeatherDisplay:10.37,2013-05-09 11:32:00,
2013-05-09 13:37:00,69.0,58.8,29.98,WSW,240,16.1,16.1,70,0.00,FEW,,0.00,868.0,WeatherDisplay:10.37,2013-05-09 11:37:00,
2013-05-09 13:42:00,69.1,58.1,29.98,NNE,15,15.0,15.0,68,0.00,FEW,,0.00,874.0,WeatherDisplay:10.37,2013-05-09 11:42:00,
2013-05-09 13:47:00,69.0,58.4,29.98,WNW,288,15.0,15.0,69,0.00,FEW,,0.00,863.0,WeatherDisplay:10.37,2013-05-09 11:47:00,
2013-05-09 13:52:00,68.8,58.6,29.98,WSW,252,18.4,18.4,70,0.00,FEW,,0.00,858.0,WeatherDisplay:10.37,2013-05-09 11:52:00,
2013-05-09 13:57:00,68.4,59.4,29.98,WSW,251,16.1,16.1,73,0.00,FEW,,0.00,856.0,WeatherDisplay:10.37,2013-05-09 11:57:00,
2013-05-09 14:02:00,69.0,59.2,29.98,West,263,14.0,14.0,71,0.00,FEW,,0.00,858.0,WeatherDisplay:10.37,2013-05-09 12:02:00,
2013-05-09 14:07:00,68.5,58.3,29.98,West,263,17.3,17.3,70,0.00,FEW,,0.00,842.0,WeatherDisplay:10.37,2013-05-09 12:07:00,
2013-05-09 14:12:00,69.1,58.5,29.97,West,265,17.3,17.3,69,0.00,FEW,,0.00,838.0,WeatherDisplay:10.37,2013-05-09 12:12:00,
2013-05-09 14:17:00,68.9,57.5,29.97,West,277,12.7,12.7,67,0.00,FEW,,0.00,840.0,WeatherDisplay:10.37,2013-05-09 12:17:00,
2013-05-09 14:22:00,69.3,57.0,29.97,North,350,12.7,12.7,65,0.00,FEW,,0.00,828.0,WeatherDisplay:10.37,2013-05-09 12:22:00,
2013-05-09 14:27:00,69.8,58.8,29.97,WSW,245,13.8,13.8,68,0.00,FEW,,0.00,824.0,WeatherDisplay:10.37,2013-05-09 12:27:00,
2013-05-09 14:32:00,69.0,59.6,29.97,WSW,251,16.1,16.1,72,0.00,FEW,,0.00,819.0,WeatherDisplay:10.37,2013-05-09 12:32:00,
2013-05-09 14:37:00,69.0,58.4,29.97,West,263,15.0,15.0,69,0.00,FEW,,0.00,812.0,WeatherDisplay:10.37,2013-05-09 12:37:00,
2013-05-09 14:42:00,69.5,60.1,29.97,SW,232,13.8,13.8,72,0.00,FEW,,0.00,803.0,WeatherDisplay:10.37,2013-05-09 12:42:00,
2013-05-09 14:47:00,69.1,59.3,29.97,West,266,17.3,17.3,71,0.00,FEW,,0.00,789.0,WeatherDisplay:10.37,2013-05-09 12:47:00,
2013-05-09 14:52:00,69.7,60.7,29.97,West,267,11.5,11.5,73,0.00,FEW,,0.00,784.0,WeatherDisplay:10.37,2013-05-09 12:52:00,
2013-05-09 14:57:00,69.6,59.8,29.97,SW,215,13.8,13.8,71,0.00,FEW,,0.00,775.0,WeatherDisplay:10.37,2013-05-09 12:57:00,
2013-05-09 15:02:00,70.0,58.5,29.97,WSW,249,12.7,12.7,67,0.00,FEW,,0.00,765.0,WeatherDisplay:10.37,2013-05-09 13:02:00,
2013-05-09 15:07:00,69.7,59.5,29.97,WSW,248,15.0,15.0,70,0.00,FEW,,0.00,756.0,WeatherDisplay:10.37,2013-05-09 13:07:00,
2013-05-09 15:13:00,70.1,60.3,29.97,WSW,238,13.8,13.8,71,0.00,FEW,,0.00,747.0,WeatherDisplay:10.37,2013-05-09 13:13:00,
2013-05-09 15:18:00,70.4,60.5,29.97,West,261,14.0,14.0,71,0.00,FEW,,0.00,745.0,WeatherDisplay:10.37,2013-05-09 13:18:00,
2013-05-09 15:23:00,69.2,59.8,29.97,WSW,248,17.3,17.3,72,0.00,FEW,,0.00,728.0,WeatherDisplay:10.37,2013-05-09 13:23:00,
2013-05-09 15:28:00,69.6,60.9,29.97,WSW,244,16.0,16.0,74,0.00,FEW,,0.00,717.0,WeatherDisplay:10.37,2013-05-09 13:28:00,
2013-05-09 15:33:00,69.8,60.8,29.97,West,261,12.0,12.0,73,0.00,FEW,,0.00,708.0,WeatherDisplay:10.37,2013-05-09 13:33:00,
2013-05-09 15:38:00,69.8,60.0,29.97,West,265,17.3,17.3,71,0.00,FEW,,0.00,694.0,WeatherDisplay:10.37,2013-05-09 13:38:00,
2013-05-09 15:43:00,69.9,59.7,29.97,ENE,63,16.1,16.1,70,0.00,FEW,,0.00,675.0,WeatherDisplay:10.37,2013-05-09 13:43:00,
2013-05-09 15:48:00,70.1,60.7,29.97,West,265,17.3,17.3,72,0.00,FEW,,0.00,663.0,WeatherDisplay:10.37,2013-05-09 13:48:00,
2013-05-09 15:53:00,69.3,60.7,29.97,WSW,247,18.4,18.4,74,0.00,FEW,,0.00,656.0,WeatherDisplay:10.37,2013-05-09 13:53:00,
2013-05-09 15:58:00,69.6,60.9,29.96,West,279,16.1,16.1,74,0.00,FEW,,0.00,640.0,WeatherDisplay:10.37,2013-05-09 13:58:00,
2013-05-09 16:03:00,69.0,60.4,29.97,WSW,254,19.6,19.6,74,0.00,FEW,,0.00,631.0,WeatherDisplay:10.37,2013-05-09 14:03:00,
2013-05-09 16:08:00,68.7,60.1,29.97,WSW,242,21.9,21.9,74,0.00,FEW,,0.00,619.0,WeatherDisplay:10.37,2013-05-09 14:08:00,
2013-05-09 16:13:00,69.1,60.8,29.97,WSW,258,17.3,17.3,75,0.00,FEW,,0.00,612.0,WeatherDisplay:10.37,2013-05-09 14:13:00,
2013-05-09 16:18:00,69.2,60.6,29.96,WSW,251,17.3,17.3,74,0.00,FEW,,0.00,596.0,WeatherDisplay:10.37,2013-05-09 14:18:00,
2013-05-09 16:23:00,69.5,60.5,29.96,SW,215,18.4,18.4,73,0.00,FEW,,0.00,584.0,WeatherDisplay:10.37,2013-05-09 14:23:00,
2013-05-09 16:28:00,69.8,61.1,29.96,SSW,205,12.7,12.7,74,0.00,FEW,,0.00,570.0,WeatherDisplay:10.37,2013-05-09 14:28:00,
2013-05-09 16:33:00,70.4,61.3,29.97,SSW,210,15.0,15.0,73,0.00,FEW,,0.00,557.0,WeatherDisplay:10.37,2013-05-09 14:33:00,
2013-05-09 16:38:00,70.0,60.6,29.96,West,266,15.0,15.0,72,0.00,FEW,,0.00,548.0,WeatherDisplay:10.37,2013-05-09 14:38:00,
2013-05-09 16:43:00,69.1,60.5,29.97,West,269,17.3,17.3,74,0.00,FEW,,0.00,534.0,WeatherDisplay:10.37,2013-05-09 14:43:00,
2013-05-09 16:48:00,69.1,60.1,29.96,West,271,18.4,18.4,73,0.00,FEW,,0.00,524.0,WeatherDisplay:10.37,2013-05-09 14:48:00,
2013-05-09 16:53:00,69.5,60.8,29.96,SSW,194,15.0,15.0,74,0.00,FEW,,0.00,503.0,WeatherDisplay:10.37,2013-05-09 14:53:00,
2013-05-09 16:58:00,69.5,60.5,29.96,West,259,16.0,16.0,73,0.00,FEW,,0.00,478.0,WeatherDisplay:10.37,2013-05-09 14:58:00,
2013-05-09 17:03:00,69.6,60.6,29.96,WSW,240,11.0,11.0,73,0.00,FEW,,0.00,461.0,WeatherDisplay:10.37,2013-05-09 15:03:00,
2013-05-09 17:08:00,69.5,59.7,29.96,WSW,256,16.1,16.1,71,0.00,FEW,,0.00,452.0,WeatherDisplay:10.37,2013-05-09 15:08:00,
2013-05-09 17:13:00,69.2,59.0,29.96,WSW,240,16.1,16.1,70,0.00,FEW,,0.00,441.0,WeatherDisplay:10.37,2013-05-09 15:13:00,
2013-05-09 17:18:00,69.7,60.3,29.96,WSW,247,12.7,12.7,72,0.00,FEW,,0.00,431.0,WeatherDisplay:10.37,2013-05-09 15:18:00,
2013-05-09 17:23:00,69.5,60.5,29.95,South,188,13.8,13.8,73,0.00,FEW,,0.00,418.0,WeatherDisplay:10.37,2013-05-09 15:23:00,
2013-05-09 17:28:00,69.8,60.0,29.96,WSW,254,12.7,12.7,71,0.00,FEW,,0.00,399.0,WeatherDisplay:10.37,2013-05-09 15:28:00,
2013-05-09 17:33:00,69.7,60.3,29.96,SW,219,8.1,8.1,72,0.00,FEW,,0.00,381.0,WeatherDisplay:10.37,2013-05-09 15:33:00,
2013-05-09 17:38:00,69.9,60.1,29.95,West,261,12.0,12.0,71,0.00,FEW,,0.00,357.0,WeatherDisplay:10.37,2013-05-09 15:38:00,
2013-05-09 17:43:00,69.7,59.9,29.95,West,271,11.5,11.5,71,0.00,FEW,,0.00,350.0,WeatherDisplay:10.37,2013-05-09 15:43:00,
2013-05-09 17:48:00,69.6,58.6,29.95,SW,227,12.7,12.7,68,0.00,FEW,,0.00,329.0,WeatherDisplay:10.37,2013-05-09 15:48:00,
2013-05-09 17:53:00,69.7,60.3,29.95,WSW,251,9.2,9.2,72,0.00,FEW,,0.00,320.0,WeatherDisplay:10.37,2013-05-09 15:53:00,
2013-05-09 17:58:00,70.0,60.2,29.96,WSW,238,9.2,9.2,71,0.00,FEW,,0.00,301.0,WeatherDisplay:10.37,2013-05-09 15:58:00,
2013-05-09 18:03:00,69.5,60.1,29.96,WSW,252,10.4,10.4,72,0.00,CLR,,0.00,290.0,WeatherDisplay:10.37,2013-05-09 16:03:00,
2013-05-09 18:08:00,69.6,60.2,29.96,West,279,15.0,15.0,72,0.00,CLR,,0.00,274.0,WeatherDisplay:10.37,2013-05-09 16:08:00,
2013-05-09 18:13:00,69.0,60.0,29.95,WSW,244,13.0,13.0,73,0.00,CLR,,0.00,257.0,WeatherDisplay:10.37,2013-05-09 16:13:00,
2013-05-09 18:18:00,69.1,60.5,29.96,WSW,237,13.8,13.8,74,0.00,CLR,,0.00,241.0,WeatherDisplay:10.37,2013-05-09 16:18:00,
2013-05-09 18:23:00,69.0,60.4,29.95,SSW,195,12.7,12.7,74,0.00,CLR,,0.00,227.0,WeatherDisplay:10.37,2013-05-09 16:23:00,
2013-05-09 18:28:00,69.1,60.8,29.96,West,259,11.5,11.5,75,0.00,CLR,,0.00,213.0,WeatherDisplay:10.37,2013-05-09 16:28:00,
2013-05-09 18:33:00,68.8,60.6,29.96,West,269,13.8,13.8,75,0.00,CLR,,0.00,202.0,WeatherDisplay:10.37,2013-05-09 16:33:00,
2013-05-09 18:38:00,68.7,60.5,29.96,WNW,301,13.8,13.8,75,0.00,CLR,,0.00,190.0,WeatherDisplay:10.37,2013-05-09 16:38:00,
2013-05-09 18:43:00,69.0,60.7,29.96,West,273,10.0,10.0,75,0.00,CLR,,0.00,174.0,WeatherDisplay:10.37,2013-05-09 16:43:00,
2013-05-09 18:48:00,69.2,60.9,29.96,West,267,13.0,13.0,75,0.00,CLR,,0.00,155.0,WeatherDisplay:10.37,2013-05-09 16:48:00,
2013-05-09 18:53:00,69.0,60.7,29.96,WNW,303,8.1,8.1,75,0.00,CLR,,0.00,146.0,WeatherDisplay:10.37,2013-05-09 16:53:00,
2013-05-09 18:58:00,69.1,60.5,29.96,WSW,248,11.5,11.5,74,0.00,CLR,,0.00,134.0,WeatherDisplay:10.37,2013-05-09 16:58:00,
2013-05-09 19:03:00,68.9,60.6,29.96,WSW,255,9.2,9.2,75,0.00,CLR,,0.00,120.0,WeatherDisplay:10.37,2013-05-09 17:03:00,
2013-05-09 19:08:00,68.7,60.5,29.97,West,267,11.5,11.5,75,0.00,,,0.00,93.0,WeatherDisplay:10.37,2013-05-09 17:08:00,
2013-05-09 19:13:00,68.6,60.4,29.97,West,277,11.5,11.5,75,0.00,,,0.00,95.0,WeatherDisplay:10.37,2013-05-09 17:13:00,
2013-05-09 19:18:00,68.5,60.3,29.97,West,273,9.2,9.2,75,0.00,,,0.00,81.0,WeatherDisplay:10.37,2013-05-09 17:18:00,
2013-05-09 19:23:00,68.7,60.5,29.97,WSW,239,5.8,5.8,75,0.00,,,0.00,63.0,WeatherDisplay:10.37,2013-05-09 17:23:00,
2013-05-09 19:28:00,68.8,60.6,29.97,SW,216,8.1,8.1,75,0.00,,,0.00,35.0,WeatherDisplay:10.37,2013-05-09 17:28:00,
2013-05-09 19:33:00,68.7,60.5,29.97,SW,230,6.0,6.0,75,0.00,,,0.00,28.0,WeatherDisplay:10.37,2013-05-09 17:33:00,
2013-05-09 19:38:00,68.7,60.8,29.97,West,271,8.1,8.1,76,0.00,,,0.00,21.0,WeatherDisplay:10.37,2013-05-09 17:38:00,
2013-05-09 19:43:00,68.5,60.6,29.97,WSW,257,6.0,6.0,76,0.00,,,0.00,18.0,WeatherDisplay:10.37,2013-05-09 17:43:00,
2013-05-09 19:48:00,68.4,60.9,29.97,SW,236,6.0,6.0,77,0.00,,,0.00,12.0,WeatherDisplay:10.37,2013-05-09 17:48:00,
2013-05-09 19:53:00,68.3,60.8,29.97,WSW,251,6.9,6.9,77,0.00,,,0.00,7.0,WeatherDisplay:10.37,2013-05-09 17:53:00,
2013-05-09 19:58:00,68.2,61.1,29.98,West,271,4.6,4.6,78,0.00,,,0.00,0.0,WeatherDisplay:10.37,2013-05-09 17:58:00,
2013-05-09 20:03:00,68.3,61.2,29.97,SW,220,4.6,4.6,78,0.00,,,0.00,0.0,WeatherDisplay:10.37,2013-05-09 18:03:00,
2013-05-09 20:09:00,68.2,61.1,29.97,SW,225,4.6,4.6,78,0.00,,,0.00,0.0,WeatherDisplay:10.37,2013-05-09 18:09:00,
2013-05-09 20:14:00,68.2,61.1,29.97,NNE,24,4.6,4.6,78,0.00,,,0.00,0.0,WeatherDisplay:10.37,2013-05-09 18:14:00,
2013-05-09 20:19:00,68.3,61.2,29.97,South,170,3.5,3.5,78,0.00,,,0.00,0.0,WeatherDisplay:10.37,2013-05-09 18:19:00,
2013-05-09 20:24:00,68.4,61.3,29.97,WSW,242,3.5,3.5,78,0.00,,,0.00,0.0,WeatherDisplay:10.37,2013-05-09 18:24:00,
2013-05-09 20:29:00,68.3,61.5,29.97,SW,219,5.8,5.8,79,0.00,,,0.00,0.0,WeatherDisplay:10.37,2013-05-09 18:29:00,
2013-05-09 20:34:00,68.2,61.8,29.97,WSW,242,4.6,4.6,80,0.00,,,0.00,0.0,WeatherDisplay:10.37,2013-05-09 18:34:00,
2013-05-09 20:39:00,67.9,61.9,29.97,SW,219,6.9,6.9,81,0.00,,,0.00,0.0,WeatherDisplay:10.37,2013-05-09 18:39:00,
2013-05-09 20:44:00,67.6,61.9,29.97,SW,221,6.9,6.9,82,0.00,,,0.00,0.0,WeatherDisplay:10.37,2013-05-09 18:44:00,
2013-05-09 20:49:00,67.3,61.6,29.98,SW,215,5.8,5.8,82,0.00,,,0.00,0.0,WeatherDisplay:10.37,2013-05-09 18:49:00,
2013-05-09 20:54:00,67.2,61.9,29.97,SW,234,3.5,3.5,83,0.00,,,0.00,0.0,WeatherDisplay:10.37,2013-05-09 18:54:00,
2013-05-09 20:59:00,67.2,61.9,29.97,SW,221,1.2,1.2,83,0.00,,,0.00,0.0,WeatherDisplay:10.37,2013-05-09 18:59:00,
2013-05-09 21:04:00,67.1,61.8,29.97,South,188,3.5,3.5,83,0.00,,,0.00,0.0,WeatherDisplay:10.37,2013-05-09 19:04:00,
2013-05-09 21:09:00,67.1,61.8,29.98,SSE,150,1.2,0.0,83,0.00,,,0.00,0.0,WeatherDisplay:10.37,2013-05-09 19:09:00,
2013-05-09 21:14:00,67.1,61.4,29.98,South,183,3.5,3.5,82,0.00,,,0.00,0.0,WeatherDisplay:10.37,2013-05-09 19:14:00,
2013-05-09 21:19:00,67.0,61.3,29.98,SW,234,3.5,3.5,82,0.00,,,0.00,0.0,WeatherDisplay:10.37,2013-05-09 19:19:00,
2013-05-09 21:24:00,66.9,61.2,29.98,SW,234,1.2,1.2,82,0.00,,,0.00,0.0,WeatherDisplay:10.37,2013-05-09 19:24:00,
2013-05-09 21:29:00,66.9,60.9,29.98,SW,234,0.0,0.1,81,0.00,,,0.00,0.0,WeatherDisplay:10.37,2013-05-09 19:29:00,
2013-05-09 21:34:00,66.9,60.9,29.97,SW,234,0.0,0.0,81,0.00,,,0.00,0.0,WeatherDisplay:10.37,2013-05-09 19:34:00,
2013-05-09 21:39:00,66.9,60.9,29.98,SW,234,0.0,0.0,81,0.00,,,0.00,0.0,WeatherDisplay:10.37,2013-05-09 19:39:00,
2013-05-09 21:44:00,66.9,60.9,29.98,SW,234,0.0,0.0,81,0.00,,,0.00,0.0,WeatherDisplay:10.37,2013-05-09 19:44:00,
2013-05-09 21:49:00,66.9,60.9,29.98,SW,234,0.0,0.0,81,0.00,,,0.00,0.0,WeatherDisplay:10.37,2013-05-09 19:49:00,
2013-05-09 21:54:00,66.8,60.8,29.98,SW,234,0.0,0.0,81,0.00,,,0.00,0.0,WeatherDisplay:10.37,2013-05-09 19:54:00,
2013-05-09 21:59:00,66.7,60.3,29.98,NNW,333,1.2,0.0,80,0.00,,,0.00,0.0,WeatherDisplay:10.37,2013-05-09 19:59:00,
2013-05-09 22:04:00,66.5,60.1,29.98,NNW,333,1.2,1.2,80,0.00,,,0.00,0.0,WeatherDisplay:10.37,2013-05-09 20:04:00,
2013-05-09 22:09:00,66.4,60.0,29.98,NNW,348,3.0,3.0,80,0.00,,,0.00,0.0,WeatherDisplay:10.37,2013-05-09 20:09:00,
2013-05-09 22:14:00,66.2,59.5,29.98,ENE,65,1.2,1.2,79,0.00,,,0.00,0.0,WeatherDisplay:10.37,2013-05-09 20:14:00,
2013-05-09 22:19:00,66.0,59.3,29.98,NE,42,3.5,3.5,79,0.00,,,0.00,0.0,WeatherDisplay:10.37,2013-05-09 20:19:00,
2013-05-09 22:24:00,65.9,59.2,29.98,ENE,57,3.5,3.5,79,0.00,,,0.00,0.0,WeatherDisplay:10.37,2013-05-09 20:24:00,
2013-05-09 22:29:00,66.0,59.3,29.98,NE,41,1.2,1.2,79,0.00,,,0.00,0.0,WeatherDisplay:10.37,2013-05-09 20:29:00,
2013-05-09 22:34:00,65.9,58.8,29.98,NE,39,2.3,2.3,78,0.00,,,0.00,0.0,WeatherDisplay:10.37,2013-05-09 20:34:00,
2013-05-09 22:39:00,65.9,58.8,29.98,WNW,294,2.3,2.3,78,0.00,,,0.00,0.0,WeatherDisplay:10.37,2013-05-09 20:39:00,
2013-05-09 22:44:00,65.9,58.8,29.98,SW,231,1.2,1.2,78,0.00,,,0.00,0.0,WeatherDisplay:10.37,2013-05-09 20:44:00,
2013-05-09 22:49:00,65.9,58.5,29.98,SE,146,3.5,3.5,77,0.00,,,0.00,0.0,WeatherDisplay:10.37,2013-05-09 20:49:00,
2013-05-09 22:54:00,65.9,58.5,29.98,NNE,22,1.2,1.2,77,0.00,,,0.00,0.0,WeatherDisplay:10.37,2013-05-09 20:54:00,
2013-05-09 22:59:00,65.8,58.0,29.99,SE,128,1.2,0.0,76,0.00,,,0.00,0.0,WeatherDisplay:10.37,2013-05-09 20:59:00,
2013-05-09 23:04:00,65.7,57.9,29.98,SE,136,3.5,3.5,76,0.00,,,0.00,0.0,WeatherDisplay:10.37,2013-05-09 21:04:00,
2013-05-09 23:09:00,65.7,57.9,29.99,ESE,105,1.2,1.2,76,0.00,,,0.00,0.0,WeatherDisplay:10.37,2013-05-09 21:09:00,
2013-05-09 23:14:00,65.6,58.2,29.98,ENE,61,1.2,1.2,77,0.00,,,0.00,0.0,WeatherDisplay:10.37,2013-05-09 21:14:00,
2013-05-09 23:19:00,65.5,58.1,29.99,NE,55,0.0,0.0,77,0.00,,,0.00,0.0,WeatherDisplay:10.37,2013-05-09 21:19:00,
2013-05-09 23:24:00,65.3,57.9,29.99,East,82,1.2,0.0,77,0.00,,,0.00,0.0,WeatherDisplay:10.37,2013-05-09 21:24:00,
2013-05-09 23:29:00,65.2,57.8,29.99,NW,311,0.0,0.2,77,0.00,,,0.00,0.0,WeatherDisplay:10.37,2013-05-09 21:29:00,
2013-05-09 23:34:00,65.1,57.7,29.99,NW,311,0.0,0.0,77,0.00,,,0.00,0.0,WeatherDisplay:10.37,2013-05-09 21:34:00,
2013-05-09 23:39:00,64.9,57.5,29.99,NW,311,0.0,0.0,77,0.00,,,0.00,0.0,WeatherDisplay:10.37,2013-05-09 21:39:00,
2013-05-09 23:44:00,64.8,57.4,29.99,NW,311,1.2,0.0,77,0.00,,,0.00,0.0,WeatherDisplay:10.37,2013-05-09 21:44:00,
2013-05-09 23:49:00,64.7,57.3,29.99,NW,326,0.0,0.0,77,0.00,,,0.00,0.0,WeatherDisplay:10.37,2013-05-09 21:49:00,
2013-05-09 23:54:00,64.5,56.8,29.99,NNE,13,0.0,0.0,76,0.00,,,0.00,0.0,WeatherDisplay:10.37,2013-05-09 21:54:00,
2013-05-09 23:59:00,64.3,56.6,29.99,NNE,13,0.0,0.0,76,0.00,,,0.00,0.0,WeatherDisplay:10.37,2013-05-09 21:59:00,